DB2YI-13 Weather Reports


time (UTC)temp
F
wind
direction
speed
knots
gust
knots
rain 1hr
in
rain 24hr
in
rain mn
in
humidity
%
barometer
mb
20260506112001 59 0 0.0 0.9 0.00 0.46 0.06 77
20260506111001 59 0 0.0 0.0 0.00 0.46 0.06 76
20260506110004 59 0 0.0 0.9 0.00 0.46 0.06 76
20260506105002 60 0 0.9 0.9 0.00 0.46 0.06 77
20260506104005 60 0 0.0 0.0 0.00 0.46 0.06 77
20260506103001 59 0 0.0 0.0 0.00 0.46 0.06 78
20260506102001 59 0 0.0 0.9 0.00 0.46 0.06 79
20260506101001 59 0 0.0 0.0 0.00 0.46 0.06 80
20260506100001 59 0 0.0 0.0 0.00 0.46 0.06 80
20260506095001 59 0 0.9 0.9 0.00 0.46 0.06 79
20260506094002 60 0 0.0 0.0 0.00 0.46 0.06 79
20260506093001 60 0 0.0 0.0 0.00 0.46 0.06 80
20260506092001 59 0 0.0 0.0 0.00 0.46 0.06 83
20260506091001 58 0 0.9 1.7 0.00 0.46 0.06 83
20260506090001 58 0 0.0 0.0 0.00 0.46 0.06 83
20260506085001 58 0 0.0 0.9 0.00 0.46 0.06 84
20260506084001 58 0 0.0 0.9 0.00 0.46 0.06 84
20260506083001 58 0 0.9 0.9 0.00 0.46 0.06 85
20260506082001 58 0 0.9 1.7 0.00 0.46 0.06 85
20260506081001 58 0 0.9 1.7 0.00 0.46 0.06 86
20260506073001 59 0 0.0 0.0 0.00 0.46 0.06 93
20260506072002 57 0 0.0 0.0 0.00 0.46 0.06 95
20260506071001 56 0 0.0 0.0 0.00 0.46 0.06 95
20260506062001 55 0 0.0 0.0 0.00 0.46 0.06 96
20260506061001 54 0 0.0 0.0 0.00 0.46 0.06 96
20260506051001 54 0 0.0 0.0 0.01 0.46 0.06 96
20260506044001 54 0 0.0 0.0 0.01 0.46 0.06 96
20260506043001 54 0 0.0 0.0 0.01 0.46 0.06 96
20260506042001 54 0 0.0 0.0 0.01 0.46 0.06 96
20260506041001 54 0 0.0 0.0 0.01 0.46 0.06 96
20260506040001 54 0 0.0 0.0 0.00 0.45 0.05 96
20260506035005 54 0 0.0 0.0 0.00 0.45 0.05 96
20260506034001 54 0 0.0 0.0 0.00 0.45 0.05 96
20260506033001 54 0 0.0 0.0 0.00 0.45 0.05 96
20260506032001 54 0 0.0 0.0 0.00 0.45 0.05 96
20260506031004 54 0 0.0 0.0 0.00 0.45 0.05 96
20260506030002 54 0 0.0 0.0 0.00 0.45 0.05 96
20260506025001 54 0 0.0 0.0 0.02 0.45 0.05 96
20260506024001 54 0 0.0 0.0 0.04 0.45 0.05 96
20260506023001 55 0 0.0 0.0 0.04 0.45 0.05 96
20260506022001 55 0 0.0 0.0 0.04 0.45 0.05 96
20260506021001 55 0 0.0 0.0 0.04 0.45 0.05 96
20260506020001 55 0 0.0 0.0 0.04 0.45 0.05 96
20260506015001 55 0 0.0 0.0 0.04 0.45 0.05 96
20260506014001 55 0 0.0 0.0 0.02 0.43 0.03 96
20260506013001 55 0 0.0 0.0 0.01 0.41 0.01 96
20260506012001 55 0 0.0 0.0 0.01 0.41 0.01 96
20260506011001 55 0 0.0 0.0 0.01 0.41 0.01 96
20260506010001 55 0 0.0 0.0 0.01 0.41 0.01 96
20260506005006 55 0 0.0 0.0 0.01 0.41 0.01 96
20260506004002 55 0 0.0 0.0 0.01 0.41 0.01 96
20260506003001 55 0 0.0 0.0 0.01 0.41 0.01 95
20260506002010 55 0 0.0 0.0 0.00 0.40 0.00 96
20260506001006 55 0 0.0 0.0 0.00 0.40 0.00 95
20260506000001 55 0 0.0 0.0 0.00 0.40 0.00 95
20260505235001 55 0 0.0 0.0 0.00 0.40 0.00 95
20260505234001 55 0 0.0 0.0 0.00 0.40 0.00 95
20260505233001 55 0 0.0 0.0 0.00 0.40 0.00 95
20260505232001 55 0 0.0 0.0 0.00 0.40 0.00 95
20260505231001 55 0 0.0 0.0 0.00 0.42 0.00 95
20260505230001 56 0 0.0 0.0 0.00 0.42 0.00 95
20260505225002 56 0 0.0 0.0 0.00 0.42 0.00 95
20260505224003 56 0 0.0 0.0 0.00 0.43 0.00 95
20260505223001 56 0 0.0 0.0 0.00 0.43 0.00 95
20260505222001 56 0 0.0 0.0 0.00 0.43 0.00 95
20260505221002 56 0 0.0 0.0 0.00 0.43 0.00 95
20260505220001 56 0 0.0 0.0 0.00 0.43 0.43 95
20260505215001 56 0 0.0 0.0 0.01 0.43 0.43 96
20260505214002 56 0 0.0 0.0 0.01 0.43 0.43 95
20260505213002 56 0 0.0 0.0 0.07 0.43 0.43 95
20260505212001 56 0 0.0 0.0 0.10 0.43 0.43 95
20260505211001 56 0 0.0 0.0 0.11 0.43 0.43 95
20260505210002 56 0 0.0 0.0 0.11 0.43 0.43 95
20260505205001 56 0 0.0 0.0 0.11 0.43 0.43 95
20260505204007 57 0 0.0 0.0 0.10 0.42 0.42 95
20260505203001 57 0 0.0 0.0 0.10 0.42 0.42 95
20260505202001 57 0 0.0 0.0 0.06 0.36 0.36 95
20260505201002 57 0 0.0 0.0 0.02 0.32 0.32 95
20260505200002 57 0 0.0 0.0 0.02 0.31 0.31 94
20260505195002 56 0 0.0 0.0 0.03 0.31 0.31 94
20260505194002 57 0 0.0 0.0 0.03 0.31 0.31 94
20260505193001 57 0 0.0 0.0 0.04 0.31 0.31 94
20260505192001 57 0 0.0 0.0 0.05 0.31 0.31 94
20260505191005 57 0 0.0 0.0 0.04 0.31 0.31 94
20260505190003 57 0 0.0 0.0 0.05 0.31 0.31 94
20260505185002 57 0 0.0 0.0 0.04 0.30 0.30 94
20260505184001 57 0 0.0 0.0 0.04 0.29 0.29 94
20260505183005 57 0 0.0 0.0 0.05 0.28 0.28 93
20260505182002 57 0 0.0 0.0 0.04 0.27 0.27 93
20260505181001 57 0 0.0 0.0 0.03 0.26 0.26 93
20260505180001 57 0 0.0 0.0 0.04 0.26 0.26 93
20260505175001 57 0 0.0 0.0 0.03 0.25 0.25 93
20260505174001 57 0 0.0 0.0 0.04 0.25 0.25 92
20260505173001 57 0 0.0 0.0 0.04 0.24 0.24 92
20260505172001 57 0 0.0 0.0 0.06 0.23 0.23 92
20260505171001 57 0 0.0 0.0 0.11 0.23 0.23 91
20260505170003 57 0 0.0 0.0 0.14 0.23 0.23 91
20260505165001 57 0 0.0 0.0 0.18 0.22 0.22 91
20260505164001 56 0 0.0 0.0 0.19 0.22 0.22 91
20260505163001 56 0 0.0 0.0 0.18 0.21 0.21 91
20260505162001 57 0 0.0 0.0 0.18 0.20 0.20 89
20260505161001 57 0 0.0 0.0 0.15 0.18 0.18 88
20260505153005 59 0 1.7 2.6 0.02 0.05 0.05 80
20260505152001 61 0 2.6 2.6 0.01 0.04 0.04 78
20260505151003 62 0 7.0 14.8 0.01 0.04 0.04 75
20260505125001 67 0 0.0 0.0 0.00 0.03 0.03 67
20260505124002 66 0 0.0 0.0 0.00 0.03 0.03 67
20260505123001 66 0 0.0 0.0 0.00 0.03 0.03 67
20260505122003 66 0 0.0 0.0 0.00 0.03 0.03 67
20260505121005 66 0 0.0 0.0 0.00 0.03 0.03 67
20260505120002 66 0 0.0 0.0 0.00 0.03 0.03 67
20260505115003 66 0 0.9 4.3 0.00 0.03 0.03 68
20260505114003 66 0 0.0 0.0 0.00 0.03 0.03 67
20260505113001 67 0 0.0 0.0 0.00 0.03 0.03 66